Regional Weather Roundup
Issued by NWS

Home | Current Version | Previous Version | Text Only | Print | Product List | Glossary On
Versions: 1 2 3 4 5 6 7 8 9 10 11 12 13 14 15 16 17 18 19 20 21 22 23 24 25 26 27 28 29 30 31 32 33 34 35 36 37 38 39 40 41 42 43 44 45 46 47 48 49 50
000
ASUS46 KPQR 302110
RWROR

OREGON REGIONAL WEATHER ROUNDUP
NATIONAL WEATHER SERVICE PORTLAND OR
200 PM PDT WED JUL 30 2014

NOTE: "FAIR" INDICATES FEW OR NO CLOUDS BELOW 12,000 FEET WITH
NO SIGNIFICANT WEATHER AND/OR OBSTRUCTIONS TO VISIBILITY.

ORZ001>013-302200-
NORTHWEST OREGON


CITY           SKY/WX    TMP DP  RH WIND       PRES   REMARKS
ASTORIA        SUNNY     70  57  63 NW12      30.14F
NEWPORT        SUNNY     63  55  77 N21G26    30.14F HAZE
PORTLAND       MOSUNNY   82  58  43 NW6       30.07F
VANCOUVER WA   SUNNY     82  57  42 VRB7      30.06F
SCAPPOOSE      SUNNY     87  54  32 N14       30.06F
HILLSBORO      SUNNY     87  57  35 VRB7      30.06F
AURORA         SUNNY     83  58  42 VRB5      30.08F
MCMINNVILLE    SUNNY     89  53  29 N13G18    30.07F
SALEM          SUNNY     87  55  33 N9        30.05F
CORVALLIS        N/A     88  54  31 NE10G16   30.07F
EUGENE         MOSUNNY   88  53  30 N15G24    30.05F
$$

ORZ021-028-302200-
SOUTHWEST OREGON


CITY           SKY/WX    TMP DP  RH WIND       PRES   REMARKS
NORTH BEND     SUNNY     63  55  77 N28G37    30.09F
BROOKINGS      CLEAR     62  55  77 VRB3      30.05S
ROSEBURG       SUNNY     90  56  31 NE12      30.02F
SEXTON SUMMIT  SUNNY     84  53  34 VRB3      30.17F
MEDFORD        MOSUNNY   96  52  22 CALM      29.97F HX  93
$$

ORZ009-041-302200-
COLUMBIA GORGE


CITY           SKY/WX    TMP DP  RH WIND       PRES   REMARKS
TROUTDALE      SUNNY     79  57  46 CALM      30.06F
THE DALLES     SUNNY     93  53  25 NW18G29   29.94F HX  90
$$

ORZ029>031-042>050-061>064-302200-
EASTERN OREGON


CITY           SKY/WX    TMP DP  RH WIND       PRES   REMARKS
REDMOND        MOSUNNY   92  37  14 N12       30.10F
BEND           CLEAR     90  41  18 E5        30.14F
KLAMATH FALLS  MOSUNNY   92  37  14 SW5       30.15F
HERMISTON      SUNNY     99  53  21 VRB3      29.94F HX  96
PENDLETON      SUNNY     99  43  14 NW10      30.00F HX  95
JOHN DAY       PTCLDY    90  37  15 W13       30.14S
MEACHAM        SUNNY     90  43  19 VRB6      30.16F
LA GRANDE      MOSUNNY   95  39  14 N7        30.07F HX  91
BAKER CITY     MOSUNNY   93  39  15 CALM      30.13F
BURNS          MOSUNNY   90  36  14 VRB3      30.18F
ROME             N/A     92  37  14 VRB6      30.15F
ONTARIO        MOSUNNY   89  53  29 CALM      30.08F
$$


USA.gov is the U.S. government's official web portal to all federal, state and local government web resources and services.